Regional Weather Roundup
Issued by NWS

Home | Current Version | Previous Version | Graphics & Text | Print | Product List | Glossary On
Versions: 1 2 3 4 5 6 7 8 9 10 11 12 13 14 15 16 17 18 19 20 21 22 23 24 25 26 27 28 29 30 31 32 33 34 35 36 37 38 39 40 41 42 43 44 45 46 47 48 49 50
000
ASUS43 KLMK 291002
RWRKY
KENTUCKY REGIONAL WEATHER ROUNDUP
NATIONAL WEATHER SERVICE LOUISVILLE KY
600 AM EDT SAT JUL 29 2017

NOTE "FAIR" INDICATES FEW OR NO CLOUDS BELOW 12,000 FEET
WITH NO SIGNIFICANT WEATHER AND/OR OBSTRUCTIONS TO VISIBILITY.

KYZ001>023-026-027-061>063-070>075-291100-
WESTERN AND SOUTH CENTRAL KENTUCKY

CITY           SKY/WX    TMP DP  RH WIND       PRES   REMARKS
PADUCAH        CLEAR     68  62  81 NE6       29.91R
HENDERSON      CLEAR     66  63  90 N9        29.94R
OWENSBORO      CLEAR     67  62  84 NE7       29.93R
HOPKINSVILLE   CLEAR     66  64  91 N7        29.89R
BOWLING GREEN  CLEAR     67  64  90 N5        29.90R
GLASGOW        NOT AVBL
$$

KYZ024-025-028>034-038-045-046-053-291100-
NORTH CENTRAL KENTUCKY

CITY           SKY/WX    TMP DP  RH WIND       PRES   REMARKS
LOUISVILLE/SDF CLEAR     66  61  84 N8        29.91S
LOUISVILLE/LOU CLEAR     67  62  84 N8        29.92S
FORT KNOX      CLEAR     64  61  89 N7        29.91R
$$

KYZ035>037-039>044-047>052-055>060-089>105-291100-
NORTHEAST KENTUCKY

CITY           SKY/WX    TMP DP  RH WIND       PRES   REMARKS
LEXINGTON      CLEAR     63  58  83 N8        29.90S
COVINGTON      CLEAR     62  59  90 N13       29.93R
FRANKFORT      CLEAR     65  59  81 N7        29.90R
$$

KYZ054-064>069-076>088-106>120-291100-
SOUTHEAST KENTUCKY

CITY           SKY/WX    TMP DP  RH WIND       PRES   REMARKS
JACKSON        CLOUDY    65  61  87 CALM      29.88S
LONDON         CLOUDY    66  62  87 NE6       29.88S
SOMERSET       CLOUDY    64  61  88 E9        29.90R
MIDDLESBORO    MOCLDY    69  66  90 CALM      29.86R
MONTICELLO     CLOUDY    66  63  90 N18       29.91R
$$




USA.gov is the U.S. government's official web portal to all federal, state and local government web resources and services.